リニア彗星

C/2007 W3 ( LINEAR )

English version
Home page
Total 6,336 html files since Dec. 4, 1995
Updated on July 17, 2008

---------------------------------------------------------------------

・ プロフィール

発見日 2007年11月29日
発見光度 19.6等
発見者 Lincoln Laboratory Near-Earth Asteroid Research project

・ 写真集

・ 軌道要素

Epoch 2008 May 14.0 TT = JDT 2454600.5
T 2008 June 2.81555 TT                                  MPC
q   1.7761788            (2000.0)            P               Q
z  +0.0000634      Peri.  112.64703     -0.28565810     -0.19645653
 +/-0.0000518      Node    73.06407     -0.64943620     -0.68006102
e   0.9998873      Incl.   78.66714     +0.70472127     -0.70634400

・ 星図

・ 光度変化

        m1 = 12.5 + 5 logΔ + 10.0 log r

---------------------------------------------------------------------

軌道要素はM.P.E.C. 2008-B23に掲載されたものです。
星図はステラナビゲータ Ver.8 (アストロアーツ) で作成したものです。
光度グラフはComet for Windowsで作成したものです。

---------------------------------------------------------------------

Copyright(C) 1995-2008 Seiichi Yoshida (comet@aerith.net). All rights reserved.